Hourly Weather Rudnichnyy

Today, 8 May, Saturday

Time Temperature Precipitation Wind Pressure Humidity
00:00 +14°C° 0 mm 1 mps 650 mmHg 85%
01:00 +14°C° 0 mm 1 mps 650 mmHg 85%
02:00 +13°C° 0 mm 1 mps 650 mmHg 85%
03:00 +14°C° 0.1 mm 1 mps 650 mmHg 85%
04:00 +14°C° 0.1 mm 1 mps 650 mmHg 85%
05:00 +14°C° 0.1 mm 1 mps 650 mmHg 85%
06:00 +15°C° 0 mm 1 mps 651 mmHg 77%
07:00 +16°C° 0 mm 2 mps 651 mmHg 68%
08:00 +17°C° 0 mm 2 mps 652 mmHg 60%
09:00 +18°C° 0 mm 2 mps 652 mmHg 58%
10:00 +19°C° 0 mm 3 mps 652 mmHg 55%
11:00 +20°C° 0 mm 3 mps 652 mmHg 53%
12:00 +20°C° 0 mm 3 mps 652 mmHg 52%
13:00 +20°C° 0 mm 3 mps 651 mmHg 52%
14:00 +20°C° 0 mm 4 mps 651 mmHg 52%
15:00 +19°C° 0 mm 3 mps 651 mmHg 54%
16:00 +19°C° 0 mm 3 mps 651 mmHg 57%
17:00 +18°C° 0 mm 3 mps 651 mmHg 59%
18:00 +17°C° 0 mm 2 mps 651 mmHg 68%
19:00 +15°C° 0 mm 2 mps 650 mmHg 77%
20:00 +14°C° 0 mm 1 mps 650 mmHg 85%
21:00 +13°C° 0 mm 1 mps 650 mmHg 85%
22:00 +13°C° 0 mm 1 mps 650 mmHg 84%
23:00 +13°C° 0 mm 1 mps 650 mmHg 84%

Tomorrow, 9 May, Sunday

Time Temperature Precipitation Wind Pressure Humidity
00:00 +13°C° 0 mm 1 mps 649 mmHg 83%
01:00 +12°C° 0 mm 2 mps 649 mmHg 81%
02:00 +12°C° 0 mm 2 mps 649 mmHg 80%
03:00 +12°C° 0 mm 2 mps 649 mmHg 75%
04:00 +13°C° 0 mm 2 mps 649 mmHg 70%
05:00 +13°C° 0 mm 2 mps 649 mmHg 66%
06:00 +15°C° 0 mm 2 mps 649 mmHg 58%
07:00 +18°C° 0 mm 1 mps 649 mmHg 50%
08:00 +20°C° 0 mm 1 mps 650 mmHg 42%
09:00 +21°C° 0 mm 1 mps 650 mmHg 40%
10:00 +21°C° 0 mm 2 mps 650 mmHg 38%
11:00 +23°C° 0 mm 2 mps 650 mmHg 35%
12:00 +24°C° 0 mm 2 mps 649 mmHg 35%
13:00 +24°C° 0 mm 3 mps 649 mmHg 35%
14:00 +25°C° 0 mm 3 mps 649 mmHg 34%
15:00 +24°C° 0 mm 3 mps 649 mmHg 37%
16:00 +24°C° 0 mm 2 mps 649 mmHg 40%
17:00 +23°C° 0 mm 2 mps 649 mmHg 43%
18:00 +20°C° 0 mm 2 mps 649 mmHg 49%
19:00 +20°C° 0 mm 1 mps 649 mmHg 55%
20:00 +18°C° 0 mm 1 mps 648 mmHg 61%
21:00 +18°C° 0 mm 1 mps 649 mmHg 63%
22:00 +16°C° 0 mm 2 mps 649 mmHg 64%
23:00 +16°C° 0 mm 2 mps 649 mmHg 65%

Day after tomorrow, 10 May, Monday

Time Temperature Precipitation Wind Pressure Humidity
00:00 +15°C° 0.3 mm 2 mps 649 mmHg 75%
01:00 +14°C° 0.3 mm 2 mps 649 mmHg 84%
02:00 +13°C° 0.3 mm 2 mps 649 mmHg 94%
03:00 +13°C° 0.1 mm 2 mps 649 mmHg 90%
04:00 +13°C° 0.1 mm 2 mps 648 mmHg 86%
05:00 +14°C° 0.1 mm 2 mps 648 mmHg 83%
06:00 +15°C° 0 mm 2 mps 648 mmHg 75%
07:00 +16°C° 0 mm 2 mps 649 mmHg 68%
08:00 +18°C° 0 mm 2 mps 649 mmHg 60%
09:00 +18°C° 0 mm 2 mps 649 mmHg 59%
10:00 +19°C° 0 mm 3 mps 649 mmHg 57%
11:00 +19°C° 0 mm 3 mps 649 mmHg 56%
12:00 +19°C° 0.2 mm 3 mps 649 mmHg 58%
13:00 +19°C° 0.2 mm 3 mps 648 mmHg 61%
14:00 +19°C° 0.2 mm 3 mps 648 mmHg 64%
15:00 +18°C° 0.2 mm 3 mps 648 mmHg 66%
16:00 +17°C° 0.2 mm 2 mps 648 mmHg 68%
17:00 +17°C° 0.2 mm 2 mps 648 mmHg 70%
18:00 +16°C° 0.1 mm 2 mps 648 mmHg 73%
19:00 +15°C° 0.1 mm 1 mps 648 mmHg 76%
20:00 +14°C° 0.1 mm 1 mps 648 mmHg 80%
21:00 +13°C° 0 mm 1 mps 648 mmHg 79%
22:00 +13°C° 0 mm 1 mps 648 mmHg 77%
23:00 +12°C° 0 mm 1 mps 647 mmHg 76%

11 May, Tuesday

Time Temperature Precipitation Wind Pressure Humidity
00:00 +12°C° 0 mm 1 mps 647 mmHg 76%
01:00 +10°C° 0 mm 2 mps 647 mmHg 77%
02:00 +10°C° 0 mm 2 mps 647 mmHg 77%
03:00 +10°C° 0 mm 2 mps 647 mmHg 74%
04:00 +10°C° 0 mm 2 mps 647 mmHg 72%
05:00 +12°C° 0 mm 2 mps 647 mmHg 69%
06:00 +13°C° 0 mm 2 mps 647 mmHg 62%
07:00 +14°C° 0 mm 2 mps 648 mmHg 55%
08:00 +15°C° 0 mm 2 mps 648 mmHg 47%
09:00 +16°C° 0 mm 3 mps 649 mmHg 45%
10:00 +17°C° 0 mm 3 mps 649 mmHg 43%
11:00 +17°C° 0 mm 4 mps 649 mmHg 41%
12:00 +18°C° 0 mm 4 mps 649 mmHg 41%
13:00 +17°C° 0 mm 5 mps 649 mmHg 42%
14:00 +17°C° 0 mm 5 mps 649 mmHg 42%
15:00 +18°C° 0 mm 4 mps 649 mmHg 44%
16:00 +17°C° 0 mm 4 mps 649 mmHg 46%
17:00 +16°C° 0 mm 3 mps 649 mmHg 48%
18:00 +14°C° 0 mm 3 mps 649 mmHg 54%
19:00 +14°C° 0 mm 2 mps 649 mmHg 60%
20:00 +13°C° 0 mm 2 mps 649 mmHg 66%
21:00 +12°C° 0.4 mm 2 mps 649 mmHg 72%
22:00 +10°C° 0.4 mm 2 mps 649 mmHg 79%
23:00 +9°C° 0.4 mm 2 mps 649 mmHg 85%

12 May, Wednesday

Time Temperature Precipitation Wind Pressure Humidity
00:00 +10°C° 0.5 mm 2 mps 649 mmHg 85%
01:00 +11°C° 0.5 mm 1 mps 649 mmHg 85%
02:00 +11°C° 0.5 mm 1 mps 649 mmHg 85%
03:00 +10°C° 0.1 mm 1 mps 649 mmHg 86%
04:00 +10°C° 0.1 mm 1 mps 649 mmHg 87%
05:00 +10°C° 0.1 mm 1 mps 649 mmHg 88%
06:00 +11°C° 0 mm 1 mps 649 mmHg 80%
07:00 +12°C° 0 mm 2 mps 649 mmHg 72%
08:00 +13°C° 0 mm 2 mps 649 mmHg 64%
09:00 +14°C° 0 mm 2 mps 649 mmHg 57%
10:00 +14°C° 0 mm 3 mps 649 mmHg 51%
11:00 +16°C° 0 mm 3 mps 649 mmHg 44%
12:00 +16°C° 0 mm 3 mps 649 mmHg 44%
13:00 +17°C° 0 mm 4 mps 649 mmHg 44%
14:00 +17°C° 0 mm 4 mps 649 mmHg 44%
15:00 +15°C° 0 mm 4 mps 648 mmHg 49%
16:00 +14°C° 0 mm 4 mps 648 mmHg 53%
17:00 +13°C° 0 mm 3 mps 648 mmHg 58%
18:00 +11°C° 0 mm 3 mps 648 mmHg 66%
19:00 +10°C° 0 mm 2 mps 648 mmHg 73%
20:00 +9°C° 0 mm 1 mps 647 mmHg 81%
21:00 +8°C° 0 mm 1 mps 647 mmHg 81%
22:00 +8°C° 0 mm 1 mps 647 mmHg 81%
23:00 +6°C° 0 mm 2 mps 647 mmHg 80%

13 May, Thursday

Time Temperature Precipitation Wind Pressure Humidity
00:00 +6°C° 0 mm 2 mps 647 mmHg 77%
01:00 +7°C° 0 mm 1 mps 646 mmHg 75%
02:00 +7°C° 0 mm 1 mps 646 mmHg 72%
03:00 +7°C° 0 mm 1 mps 646 mmHg 67%
04:00 +6°C° 0 mm 2 mps 646 mmHg 63%
05:00 +6°C° 0 mm 2 mps 646 mmHg 58%
06:00 +8°C° 0 mm 2 mps 647 mmHg 48%
07:00 +10°C° 0 mm 2 mps 647 mmHg 39%
08:00 +13°C° 0 mm 2 mps 647 mmHg 29%
09:00 +14°C° 0 mm 2 mps 647 mmHg 29%
10:00 +14°C° 0 mm 2 mps 647 mmHg 29%
11:00 +14°C° 0 mm 3 mps 647 mmHg 30%
12:00 +16°C° 0 mm 3 mps 647 mmHg 31%
13:00 +16°C° 0 mm 3 mps 647 mmHg 32%
14:00 +16°C° 0 mm 3 mps 647 mmHg 33%
15:00 +16°C° 0 mm 3 mps 647 mmHg 35%
16:00 +14°C° 0 mm 3 mps 647 mmHg 37%
17:00 +14°C° 0 mm 3 mps 646 mmHg 39%
18:00 +13°C° 0 mm 2 mps 646 mmHg 48%
19:00 +10°C° 0 mm 2 mps 646 mmHg 56%
20:00 +9°C° 0 mm 1 mps 645 mmHg 65%
21:00 +9°C° 0 mm 1 mps 645 mmHg 63%
22:00 +8°C° 0 mm 2 mps 645 mmHg 60%
23:00 +8°C° 0 mm 2 mps 645 mmHg 58%
Show more